Flag for U.S.A. Weather past 2 weeks in St. Croix Falls, Wisconsin, U.S.A.

Now
36 °F

Overcast.


Feels Like: 31 °F
Forecast: 13 / 27 °F
Wind: 6 mph from Northeast

Location: L O Simenstad Municipal Airport

Current Time: Jan 24, 2015 at 10:04:35 PM

Latest Report: Jan 24, 2015 at 9:15 PM


Visibility: 10 mi

Pressure: 29.67 "Hg

Humidity: 83%

Dew point: 31 °F

Location of St. Croix FallsLocation

Historic Weather in St. Croix Falls — Graph

°F

St. Croix Falls temperature yesterday

Maximum temperature yesterday: 39 °F (at 2:55 PM)
Minimum temperature yesterday: 29 °F (at 12:15 AM)
Average temperature yesterday: 33 °F

Past Weeks' High & Low Weather Summary

 TemperatureHumidityPressure
High40 °F (Jan 24, 1:55 PM)100% (Jan 15, 5:55 AM)30.82 "Hg (Jan 15, 5:55 AM)
Low-20 °F (Jan 13, 3:15 AM)57% (Jan 12, 4:15 PM)29.48 "Hg (Jan 17, 1:55 PM)
Average20 °F81%30.09 "Hg
* Reported Jan 9 8:15 PM — Jan 24 8:55 PM, St. Croix Falls, Weather by CustomWeather, © 2014

Note: Actual official high and low records may vary slightly from our data, if they occured in-between our weather recording intervals... More about our weather records

Advertising

St. Croix Falls weather history for previous 24 hours

 ConditionsComfort  
Time TempWeatherWind HumidityBarometerVisibility
8:55 PM
Jan 24
36 °FOvercast.5 mph82%29.66 "Hg10 mi
8:15 PM36 °FOvercast.3 mph82%29.65 "Hg10 mi
7:55 PM36 °FOvercast.3 mph83%29.65 "Hg10 mi
7:35 PM36 °FMostly cloudy.5 mph83%29.64 "Hg10 mi
7:15 PM36 °FMostly cloudy.3 mph83%29.64 "Hg10 mi
6:55 PM35 °FOvercast.3 mph89%29.64 "Hg10 mi
6:35 PM35 °FOvercast.No wind87%29.64 "Hg10 mi
6:15 PM36 °FOvercast.3 mph82%29.64 "Hg10 mi
5:55 PM35 °FPassing clouds.No wind86%29.64 "Hg10 mi
5:35 PM35 °FClear.5 mph83%29.63 "Hg10 mi
5:15 PM37 °FClear.3 mph78%29.62 "Hg10 mi
4:55 PM37 °FSunny.3 mph78%29.62 "Hg10 mi
4:15 PM39 °FPartly sunny.No wind72%29.61 "Hg10 mi
3:55 PM39 °FOvercast.No wind74%29.61 "Hg10 mi
3:35 PM40 °FOvercast.3 mph73%29.61 "Hg10 mi
3:15 PM39 °FOvercast.No wind74%29.61 "Hg10 mi
2:55 PM40 °FOvercast.No wind72%29.61 "Hg10 mi
2:15 PM40 °FOvercast.No wind71%29.62 "Hg10 mi
1:55 PM40 °FOvercast.3 mph71%29.62 "Hg10 mi
1:35 PM40 °FPartly sunny.No wind72%29.63 "Hg10 mi
1:15 PM39 °FPartly sunny.No wind73%29.63 "Hg10 mi
12:55 PM40 °FScattered clouds.No wind74%29.64 "Hg10 mi
12:35 PM39 °FScattered clouds.No wind75%29.65 "Hg10 mi
12:15 PM39 °FScattered clouds.5 mph76%29.66 "Hg10 mi
11:55 AM38 °FPartly sunny.5 mph80%29.67 "Hg10 mi
11:15 AM36 °FOvercast.3 mph88%29.69 "Hg10 mi
10:55 AM36 °FOvercast.5 mph89%29.69 "Hg10 mi
10:15 AM33 °FPartly sunny.5 mph99%29.70 "Hg10 mi
9:55 AM32 °FSunny.6 mph100%29.71 "Hg10 mi
9:15 AM30 °FScattered clouds.No wind100%29.72 "Hg7 mi
8:55 AM29 °FOvercast.No wind100%29.73 "Hg7 mi
8:15 AM29 °FOvercast.No wind100%29.73 "Hg7 mi
7:55 AM29 °FOvercast.3 mph100%29.73 "Hg7 mi
7:35 AM27 °FOvercast.No wind100%29.73 "Hg7 mi
7:15 AM27 °FIce fog.No wind100%29.74 "Hg5 mi
6:55 AM26 °FIce fog.No wind100%29.74 "Hg4 mi
6:35 AM25 °FIce fog.No wind100%29.75 "Hg3 mi
6:15 AM26 °FIce fog.No wind100%29.75 "Hg4 mi
5:55 AM27 °FIce fog.No wind100%29.75 "Hg2 mi
5:35 AM27 °FIce fog.No wind100%29.75 "Hg1 mi
5:15 AM28 °FIce fog.No wind100%29.76 "Hg5 mi
4:55 AM29 °FClear.3 mph100%29.76 "Hg10 mi
4:35 AM30 °FPassing clouds.5 mph100%29.75 "Hg10 mi
4:15 AM29 °FPassing clouds.5 mph100%29.76 "Hg10 mi
3:55 AM29 °FClear.5 mph100%29.76 "Hg10 mi
3:35 AM29 °FClear.5 mph100%29.76 "Hg10 mi
3:15 AM29 °FPassing clouds.6 mph100%29.76 "Hg10 mi
2:55 AM29 °FPartly cloudy.5 mph100%29.76 "Hg10 mi
2:15 AM30 °FPassing clouds.7 mph100%29.77 "Hg10 mi
1:55 AM30 °FPassing clouds.7 mph100%29.77 "Hg10 mi
1:35 AM29 °FClear.6 mph100%29.77 "Hg10 mi
1:15 AM29 °FClear.8 mph100%29.77 "Hg10 mi
12:55 AM28 °FClear.7 mph100%29.78 "Hg10 mi
12:35 AM29 °FClear.6 mph100%29.78 "Hg10 mi
12:15 AM29 °FClear.6 mph100%29.79 "Hg10 mi
11:55 PM
Jan 23
30 °FPassing clouds.5 mph100%29.80 "Hg10 mi
11:35 PM30 °FPassing clouds.6 mph100%29.81 "Hg10 mi
11:15 PM30 °FClear.6 mph100%29.82 "Hg10 mi
10:55 PM30 °FPassing clouds.6 mph100%29.82 "Hg10 mi
10:35 PM30 °FPassing clouds.7 mph99%29.83 "Hg10 mi
10:15 PM30 °FPassing clouds.7 mph96%29.83 "Hg10 mi
Weather by CustomWeather, © 2014

See weather overviewHow to use our weather pages